Regional Weather Roundup
Issued by NWS

Home | Current Version | Previous Version | Graphics & Text | Print | Product List | Glossary On
Versions: 1 2 3 4 5 6 7 8 9 10 11 12 13 14 15 16 17 18 19 20 21 22 23 24 25 26 27 28 29 30 31 32 33 34 35 36 37 38 39 40 41 42 43 44 45 46 47 48 49 50
000
ASUS45 KCYS 272210
RWRWY

WYOMING REGIONAL WEATHER ROUNDUP
NATIONAL WEATHER SERVICE CHEYENNE WY
300 PM MST THU NOV 27 2014

NOTE:  "FAIR" INDICATES FEW OR NO CLOUDS BELOW 12,000 FEET
WITH NO SIGNIFICANT WEATHER AND/OR OBSTRUCTIONS TO VISIBILITY.

WYZ001-272300-
YELLOWSTONE NATIONAL PARK

CITY           SKY/WX    TMP DP  RH WIND       PRES   REMARKS
LK YELLOWSTONE   N/A     38  28  67 VRB6      30.19R WCI  33
W YELLOWSTONE  NOT AVBL

$$
WYZ002>013-054>058-071-098>099-272300-
NORTHERN WYOMING

CITY           SKY/WX    TMP DP  RH WIND       PRES   REMARKS
JACKSON        NOT AVBL
CODY           MOSUNNY   55  27  33 SW16G25   29.96R
GREYBULL       SUNNY     32  27  81 SE6       29.98F WCI  26
WORLAND        SUNNY     36  29  75 NE9       29.98F WCI  29
SHERIDAN       MOSUNNY   51  28  41 W18       29.87S
BUFFALO        PTSUNNY   51  25  36 SE7       29.91F
GILLETTE       MOSUNNY   47  31  53 SW18      29.89F
HULETT           N/A    N/A N/A N/A MISG        N/A
NEWCASTLE      FAIR      45  30  57 MISG      29.95F

$$
WYZ014>020-022>026-101>103-272300-
CENTRAL WYOMING

CITY           SKY/WX    TMP DP  RH WIND       PRES   REMARKS
BIG PINEY      MOSUNNY  N/A N/A N/A E8        30.24F
PINEDALE       PTCLDY    43  28  56 CALM      30.26S
DUBOIS         FAIR      43  27  52 W29G46    30.13F
LANDER         MOSUNNY   56  23  27 W17G32    30.03S
RIVERTON       SUNNY     58  28  32 NW3       30.06F
CASPER         SUNNY     54  27  35 SW13      30.06R
DOUGLAS        MOSUNNY   57  25  29 W28G39    29.99S

$$
WYZ021-027>030-104>119-272300-
SOUTHERN WYOMING

CITY           SKY/WX    TMP DP  RH WIND       PRES   REMARKS
EVANSTON       PTSUNNY   51  22  31 SW12      30.28F
FORT BRIDGER   FAIR      53  24  31 W20G26    30.28F
ROCK SPRINGS   PTSUNNY   49  22  34 W17       30.25S
DIXON          FAIR      49  22  34 SW8G22    30.29S
RAWLINS        CLOUDY    49  22  34 W17G35    30.20S
SARATOGA       FAIR      46  21  36 W16G22    30.24S
LARAMIE        PTSUNNY   47  21  35 W30G39    30.18R
CHEYENNE       PTSUNNY   56  22  26 NW25G45   30.11R
TORRINGTON     MOSUNNY   60  24  25 W23G36    29.98S
PINE BLUFFS    FAIR      55  27  33 W15G22    30.08R

$$



USA.gov is the U.S. government's official web portal to all federal, state and local government web resources and services.